date,time,SUV Intensity [MED/Hr],UV Index,Daily total [MED],Since Last [MED]
09/03/2022,00:05:41,0.000,0.0,0.0,0.0
09/03/2022,00:06:41,0.000,0.0,0.0,0.0
09/03/2022,00:07:32,-0.000,0.0,0.0,0.0
09/03/2022,00:08:32,0.000,0.0,0.0,0.0
09/03/2022,00:09:32,0.000,0.0,0.0,0.0
09/03/2022,00:10:32,0.000,0.0,0.0,0.0
09/03/2022,00:11:32,0.000,0.0,0.0,0.0
09/03/2022,00:12:32,-0.000,0.0,0.0,0.0
09/03/2022,00:13:42,0.000,0.0,0.0,0.0
09/03/2022,00:14:31,0.001,0.0,0.0,0.0
09/03/2022,00:15:32,0.000,0.0,0.0,0.0
09/03/2022,00:16:32,-0.001,0.0,0.0,0.0
09/03/2022,00:17:32,0.000,0.0,0.0,0.0
09/03/2022,00:18:32,-0.001,0.0,0.0,0.0
09/03/2022,00:19:32,0.000,0.0,0.0,0.0
09/03/2022,00:20:32,0.001,0.0,0.0,0.0
09/03/2022,00:21:40,-0.001,0.0,0.0,0.0
09/03/2022,00:22:32,-0.001,0.0,0.0,0.0
09/03/2022,00:23:32,0.000,0.0,0.0,0.0
09/03/2022,00:24:49,0.001,0.0,0.0,0.0
09/03/2022,00:26:33,-0.000,0.0,0.0,0.0
09/03/2022,00:27:32,0.000,0.0,0.0,0.0
09/03/2022,00:28:32,0.000,0.0,0.0,0.0
09/03/2022,00:29:32,0.000,0.0,0.0,0.0
09/03/2022,00:30:34,0.000,0.0,0.0,0.0
09/03/2022,00:31:41,-0.001,0.0,0.0,0.0
09/03/2022,00:32:32,0.000,0.0,0.0,0.0
09/03/2022,00:33:32,0.000,0.0,0.0,0.0
09/03/2022,00:34:32,-0.001,0.0,0.0,0.0
09/03/2022,00:35:32,0.000,0.0,0.0,0.0
09/03/2022,00:36:33,-0.001,0.0,0.0,0.0
09/03/2022,00:37:32,0.001,0.0,0.0,0.0
09/03/2022,00:38:32,0.000,0.0,0.0,0.0
09/03/2022,00:39:32,-0.001,0.0,0.0,0.0
09/03/2022,00:40:32,-0.000,0.0,0.0,0.0
09/03/2022,00:41:40,0.001,0.0,0.0,0.0
09/03/2022,00:42:32,-0.000,0.0,0.0,0.0
09/03/2022,00:43:32,-0.001,0.0,0.0,0.0
09/03/2022,00:44:32,0.000,0.0,0.0,0.0
09/03/2022,00:45:32,0.000,0.0,0.0,0.0
09/03/2022,00:46:32,-0.001,0.0,0.0,0.0
09/03/2022,00:47:32,-0.001,0.0,0.0,0.0
09/03/2022,00:48:32,-0.000,0.0,0.0,0.0
09/03/2022,00:49:32,-0.000,0.0,0.0,0.0
09/03/2022,00:50:32,0.000,0.0,0.0,0.0
09/03/2022,00:51:32,0.000,0.0,0.0,0.0
09/03/2022,00:52:40,-0.001,0.0,0.0,0.0
09/03/2022,00:53:33,-0.001,0.0,0.0,0.0
09/03/2022,00:54:32,0.001,0.0,0.0,0.0
09/03/2022,00:55:32,0.000,0.0,0.0,0.0
09/03/2022,00:56:32,0.000,0.0,0.0,0.0
09/03/2022,00:57:32,0.000,0.0,0.0,0.0
09/03/2022,00:58:32,0.000,0.0,0.0,0.0
09/03/2022,00:59:42,0.002,0.0,0.0,0.0
09/03/2022,01:00:33,0.000,0.0,0.0,0.0
09/03/2022,01:01:32,0.000,0.0,0.0,0.0
09/03/2022,01:02:40,0.000,0.0,0.0,0.0
09/03/2022,01:03:32,0.000,0.0,0.0,0.0
09/03/2022,01:04:32,0.000,0.0,0.0,0.0
09/03/2022,01:05:32,0.000,0.0,0.0,0.0
09/03/2022,01:06:33,0.000,0.0,0.0,0.0
09/03/2022,01:07:32,0.000,0.0,0.0,0.0
09/03/2022,01:08:32,0.000,0.0,0.0,0.0
09/03/2022,01:09:32,0.000,0.0,0.0,0.0
09/03/2022,01:10:33,0.001,0.0,0.0,0.0
09/03/2022,01:11:33,0.000,0.0,0.0,0.0
09/03/2022,01:12:32,0.001,0.0,0.0,0.0
09/03/2022,01:13:40,-0.001,0.0,0.0,0.0
09/03/2022,01:14:32,0.000,0.0,0.0,0.0
09/03/2022,01:15:32,0.000,0.0,0.0,0.0
09/03/2022,01:16:33,0.000,0.0,0.0,0.0
09/03/2022,01:17:32,0.000,0.0,0.0,0.0
09/03/2022,01:18:32,0.000,0.0,0.0,0.0
09/03/2022,01:19:32,0.001,0.0,0.0,0.0
09/03/2022,01:20:33,-0.001,0.0,0.0,0.0
09/03/2022,01:21:32,0.000,0.0,0.0,0.0
09/03/2022,01:22:32,0.000,0.0,0.0,0.0
09/03/2022,01:23:40,0.000,0.0,0.0,0.0
09/03/2022,01:24:32,0.000,0.0,0.0,0.0
09/03/2022,01:25:32,0.000,0.0,0.0,0.0
09/03/2022,01:26:32,0.001,0.0,0.0,0.0
09/03/2022,01:27:32,0.000,0.0,0.0,0.0
09/03/2022,01:28:32,0.000,0.0,0.0,0.0
09/03/2022,01:29:32,0.001,0.0,0.0,0.0
09/03/2022,01:30:32,0.000,0.0,0.0,0.0
09/03/2022,01:31:32,0.000,0.0,0.0,0.0
09/03/2022,01:32:32,0.000,0.0,0.0,0.0
09/03/2022,01:33:40,0.000,0.0,0.0,0.0
09/03/2022,01:34:40,0.000,0.0,0.0,0.0
09/03/2022,01:35:32,0.001,0.0,0.0,0.0
09/03/2022,01:36:32,0.000,0.0,0.0,0.0
09/03/2022,01:37:33,0.000,0.0,0.0,0.0
09/03/2022,01:38:32,0.000,0.0,0.0,0.0
09/03/2022,01:39:32,0.000,0.0,0.0,0.0
09/03/2022,01:40:32,0.000,0.0,0.0,0.0
09/03/2022,01:41:32,0.001,0.0,0.0,0.0
09/03/2022,01:42:32,0.000,0.0,0.0,0.0
09/03/2022,01:43:32,0.001,0.0,0.0,0.0
09/03/2022,01:44:32,-0.000,0.0,0.0,0.0
09/03/2022,01:45:32,0.000,0.0,0.0,0.0
09/03/2022,01:46:32,0.001,0.0,0.0,0.0
09/03/2022,01:47:32,0.001,0.0,0.0,0.0
09/03/2022,01:48:33,0.001,0.0,0.0,0.0
09/03/2022,01:49:41,0.001,0.0,0.0,0.0
09/03/2022,01:50:32,0.000,0.0,0.0,0.0
09/03/2022,01:51:32,0.001,0.0,0.0,0.0
09/03/2022,01:52:32,0.001,0.0,0.0,0.0
09/03/2022,01:53:32,0.001,0.0,0.0,0.0
09/03/2022,01:54:40,0.000,0.0,0.0,0.0
09/03/2022,01:55:32,-0.000,0.0,0.0,0.0
09/03/2022,01:56:33,0.001,0.0,0.0,0.0
09/03/2022,01:57:32,0.001,0.0,0.0,0.0
09/03/2022,01:58:33,0.001,0.0,0.0,0.0
09/03/2022,01:59:32,-0.000,0.0,0.0,0.0
09/03/2022,02:00:32,0.001,0.0,0.0,0.0
09/03/2022,02:01:41,0.001,0.0,0.0,0.0
09/03/2022,02:02:32,0.001,0.0,0.0,0.0
09/03/2022,02:03:32,0.001,0.0,0.0,0.0
09/03/2022,02:04:32,0.001,0.0,0.0,0.0
09/03/2022,02:05:32,0.001,0.0,0.0,0.0
09/03/2022,02:06:32,0.001,0.0,0.0,0.0
09/03/2022,02:07:32,0.001,0.0,0.0,0.0
09/03/2022,02:08:33,0.001,0.0,0.0,0.0
09/03/2022,02:09:32,0.001,0.0,0.0,0.0
09/03/2022,02:10:32,0.001,0.0,0.0,0.0
09/03/2022,02:11:32,0.001,0.0,0.0,0.0
09/03/2022,02:12:32,0.001,0.0,0.0,0.0
09/03/2022,02:13:32,0.000,0.0,0.0,0.0
09/03/2022,02:14:32,0.001,0.0,0.0,0.0
09/03/2022,02:15:32,-0.000,0.0,0.0,0.0
09/03/2022,02:16:32,0.001,0.0,0.0,0.0
09/03/2022,02:17:33,0.001,0.0,0.0,0.0
09/03/2022,02:18:41,0.001,0.0,0.0,0.0
09/03/2022,02:19:32,0.000,0.0,0.0,0.0
09/03/2022,02:20:32,0.001,0.0,0.0,0.0
09/03/2022,02:21:32,0.000,0.0,0.0,0.0
09/03/2022,02:22:40,0.001,0.0,0.0,0.0
09/03/2022,02:23:32,0.001,0.0,0.0,0.0
09/03/2022,02:24:32,0.001,0.0,0.0,0.0
09/03/2022,02:25:33,0.001,0.0,0.0,0.0
09/03/2022,02:26:32,-0.000,0.0,0.0,0.0
09/03/2022,02:27:32,0.001,0.0,0.0,0.0
09/03/2022,02:28:32,0.001,0.0,0.0,0.0
09/03/2022,02:29:33,0.000,0.0,0.0,0.0
09/03/2022,02:30:32,0.000,0.0,0.0,0.0
09/03/2022,02:31:32,0.001,0.0,0.0,0.0
09/03/2022,02:32:32,0.000,0.0,0.0,0.0
09/03/2022,02:33:32,0.000,0.0,0.0,0.0
09/03/2022,02:34:33,0.000,0.0,0.0,0.0
09/03/2022,02:35:32,0.000,0.0,0.0,0.0
09/03/2022,02:36:32,0.000,0.0,0.0,0.0
09/03/2022,02:37:32,0.001,0.0,0.0,0.0
09/03/2022,02:38:33,0.000,0.0,0.0,0.0
09/03/2022,02:39:33,0.000,0.0,0.0,0.0
09/03/2022,02:40:32,-0.000,0.0,0.0,0.0
09/03/2022,02:41:32,0.000,0.0,0.0,0.0
09/03/2022,02:42:32,0.000,0.0,0.0,0.0
09/03/2022,02:43:33,0.000,0.0,0.0,0.0
09/03/2022,02:44:34,0.000,0.0,0.0,0.0
09/03/2022,02:45:32,0.001,0.0,0.0,0.0
09/03/2022,02:46:33,0.000,0.0,0.0,0.0
09/03/2022,02:47:32,0.000,0.0,0.0,0.0
09/03/2022,02:48:35,-0.001,0.0,0.0,0.0
09/03/2022,02:49:33,0.001,0.0,0.0,0.0
09/03/2022,02:50:41,0.001,0.0,0.0,0.0
09/03/2022,02:51:33,0.000,0.0,0.0,0.0
09/03/2022,02:52:32,0.000,0.0,0.0,0.0
09/03/2022,02:53:32,0.000,0.0,0.0,0.0
09/03/2022,02:54:33,0.001,0.0,0.0,0.0
09/03/2022,02:55:32,-0.000,0.0,0.0,0.0
09/03/2022,02:56:32,0.000,0.0,0.0,0.0
09/03/2022,02:57:32,0.000,0.0,0.0,0.0
09/03/2022,02:58:32,0.000,0.0,0.0,0.0
09/03/2022,02:59:32,0.000,0.0,0.0,0.0
09/03/2022,03:00:33,0.000,0.0,0.0,0.0
09/03/2022,03:01:32,-0.001,0.0,0.0,0.0
09/03/2022,03:02:32,0.000,0.0,0.0,0.0
09/03/2022,03:03:32,0.000,0.0,0.0,0.0
09/03/2022,03:04:32,0.000,0.0,0.0,0.0
09/03/2022,03:05:33,0.001,0.0,0.0,0.0
09/03/2022,03:06:32,0.000,0.0,0.0,0.0
09/03/2022,03:07:32,0.000,0.0,0.0,0.0
09/03/2022,03:08:32,0.000,0.0,0.0,0.0
09/03/2022,03:09:32,0.001,0.0,0.0,0.0
09/03/2022,03:10:32,-0.001,0.0,0.0,0.0
09/03/2022,03:11:33,-0.000,0.0,0.0,0.0
09/03/2022,03:12:32,0.001,0.0,0.0,0.0
09/03/2022,03:13:32,0.000,0.0,0.0,0.0
09/03/2022,03:14:33,0.000,0.0,0.0,0.0
09/03/2022,03:15:32,0.000,0.0,0.0,0.0
09/03/2022,03:16:32,0.000,0.0,0.0,0.0
09/03/2022,03:17:32,0.000,0.0,0.0,0.0
09/03/2022,03:18:41,0.000,0.0,0.0,0.0
09/03/2022,03:19:33,0.000,0.0,0.0,0.0
09/03/2022,03:20:32,0.001,0.0,0.0,0.0
09/03/2022,03:21:40,0.001,0.0,0.0,0.0
09/03/2022,03:22:33,0.000,0.0,0.0,0.0
09/03/2022,03:23:32,0.001,0.0,0.0,0.0
09/03/2022,03:24:32,0.000,0.0,0.0,0.0
09/03/2022,03:25:32,0.000,0.0,0.0,0.0
09/03/2022,03:26:33,0.000,0.0,0.0,0.0
09/03/2022,03:27:32,0.001,0.0,0.0,0.0
09/03/2022,03:28:41,0.000,0.0,0.0,0.0
09/03/2022,03:29:32,-0.000,0.0,0.0,0.0
09/03/2022,03:30:32,0.000,0.0,0.0,0.0
09/03/2022,03:31:41,0.000,0.0,0.0,0.0
09/03/2022,03:32:31,0.000,0.0,0.0,0.0
09/03/2022,03:33:33,0.000,0.0,0.0,0.0
09/03/2022,03:34:33,0.000,0.0,0.0,0.0
09/03/2022,03:36:33,0.001,0.0,0.0,0.0
09/03/2022,03:37:33,0.000,0.0,0.0,0.0
09/03/2022,03:38:32,0.000,0.0,0.0,0.0
09/03/2022,03:39:41,0.000,0.0,0.0,0.0
09/03/2022,03:40:32,-0.000,0.0,0.0,0.0
09/03/2022,03:41:32,0.000,0.0,0.0,0.0
09/03/2022,03:42:33,0.000,0.0,0.0,0.0
09/03/2022,03:43:33,0.000,0.0,0.0,0.0
09/03/2022,03:44:33,0.000,0.0,0.0,0.0
09/03/2022,03:45:32,0.000,0.0,0.0,0.0
09/03/2022,03:46:32,-0.000,0.0,0.0,0.0
09/03/2022,03:47:33,0.000,0.0,0.0,0.0
09/03/2022,03:48:32,0.000,0.0,0.0,0.0
09/03/2022,03:49:40,0.000,0.0,0.0,0.0
09/03/2022,03:50:32,0.000,0.0,0.0,0.0
09/03/2022,03:51:32,0.000,0.0,0.0,0.0
09/03/2022,03:52:33,0.000,0.0,0.0,0.0
09/03/2022,03:53:33,-0.000,0.0,0.0,0.0
09/03/2022,03:54:33,-0.000,0.0,0.0,0.0
09/03/2022,03:55:33,0.000,0.0,0.0,0.0
09/03/2022,03:56:40,0.000,0.0,0.0,0.0
09/03/2022,03:57:33,0.000,0.0,0.0,0.0
09/03/2022,03:58:33,0.001,0.0,0.0,0.0
09/03/2022,04:00:25,0.000,0.0,0.0,0.0
09/03/2022,04:01:32,0.000,0.0,0.0,0.0
09/03/2022,04:02:33,0.001,0.0,0.0,0.0
09/03/2022,04:03:33,0.000,0.0,0.0,0.0
09/03/2022,04:04:32,0.000,0.0,0.0,0.0
09/03/2022,04:05:32,0.001,0.0,0.0,0.0
09/03/2022,04:06:32,0.000,0.0,0.0,0.0
09/03/2022,04:07:33,-0.001,0.0,0.0,0.0
09/03/2022,04:08:32,0.000,0.0,0.0,0.0
09/03/2022,04:09:32,-0.000,0.0,0.0,0.0
09/03/2022,04:10:33,0.000,0.0,0.0,0.0
09/03/2022,04:11:33,0.000,0.0,0.0,0.0
09/03/2022,04:12:32,-0.000,0.0,0.0,0.0
09/03/2022,04:13:32,0.000,0.0,0.0,0.0
09/03/2022,04:14:32,-0.000,0.0,0.0,0.0
09/03/2022,04:15:32,-0.000,0.0,0.0,0.0
09/03/2022,04:16:32,0.001,0.0,0.0,0.0
09/03/2022,04:17:33,-0.000,0.0,0.0,0.0
09/03/2022,04:18:33,0.001,0.0,0.0,0.0
09/03/2022,04:19:32,0.000,0.0,0.0,0.0
09/03/2022,04:20:40,0.000,0.0,0.0,0.0
09/03/2022,04:21:32,0.000,0.0,0.0,0.0
09/03/2022,04:22:33,-0.001,0.0,0.0,0.0
09/03/2022,04:23:32,0.000,0.0,0.0,0.0
09/03/2022,04:24:32,-0.000,0.0,0.0,0.0
09/03/2022,04:25:32,-0.000,0.0,0.0,0.0
09/03/2022,04:26:32,0.000,0.0,0.0,0.0
09/03/2022,04:27:32,0.000,0.0,0.0,0.0
09/03/2022,04:28:41,0.001,0.0,0.0,0.0
09/03/2022,04:29:31,0.000,0.0,0.0,0.0
09/03/2022,04:30:33,0.000,0.0,0.0,0.0
09/03/2022,04:31:32,0.000,0.0,0.0,0.0
09/03/2022,04:32:32,0.000,0.0,0.0,0.0
09/03/2022,04:33:33,0.001,0.0,0.0,0.0
09/03/2022,04:34:33,-0.001,0.0,0.0,0.0
09/03/2022,04:35:32,0.000,0.0,0.0,0.0
09/03/2022,04:36:32,0.000,0.0,0.0,0.0
09/03/2022,04:37:32,0.000,0.0,0.0,0.0
09/03/2022,04:38:40,0.000,0.0,0.0,0.0
09/03/2022,04:39:32,0.000,0.0,0.0,0.0
09/03/2022,04:40:33,0.000,0.0,0.0,0.0
09/03/2022,04:41:32,0.001,0.0,0.0,0.0
09/03/2022,04:42:35,0.000,0.0,0.0,0.0
09/03/2022,04:43:32,-0.001,0.0,0.0,0.0
09/03/2022,04:44:32,0.000,0.0,0.0,0.0
09/03/2022,04:45:33,0.000,0.0,0.0,0.0
09/03/2022,04:46:33,-0.000,0.0,0.0,0.0
09/03/2022,04:47:33,-0.000,0.0,0.0,0.0
09/03/2022,04:48:32,0.000,0.0,0.0,0.0
09/03/2022,04:49:32,0.000,0.0,0.0,0.0
09/03/2022,04:50:33,0.000,0.0,0.0,0.0
09/03/2022,04:51:33,0.000,0.0,0.0,0.0
09/03/2022,04:52:41,0.000,0.0,0.0,0.0
09/03/2022,04:53:33,0.000,0.0,0.0,0.0
09/03/2022,04:54:32,0.000,0.0,0.0,0.0
09/03/2022,04:55:40,0.001,0.0,0.0,0.0
09/03/2022,04:56:32,-0.001,0.0,0.0,0.0
09/03/2022,04:57:33,0.000,0.0,0.0,0.0
09/03/2022,04:58:32,0.000,0.0,0.0,0.0
09/03/2022,04:59:32,-0.000,0.0,0.0,0.0
09/03/2022,05:00:32,0.001,0.0,0.0,0.0
09/03/2022,05:01:32,0.000,0.0,0.0,0.0
09/03/2022,05:02:33,0.000,0.0,0.0,0.0
09/03/2022,05:03:33,0.001,0.0,0.0,0.0
09/03/2022,05:04:32,0.000,0.0,0.0,0.0
09/03/2022,05:05:32,0.001,0.0,0.0,0.0
09/03/2022,05:06:33,-0.000,0.0,0.0,0.0
09/03/2022,05:07:32,0.000,0.0,0.0,0.0
09/03/2022,05:08:32,0.000,0.0,0.0,0.0
09/03/2022,05:09:32,-0.001,0.0,0.0,0.0
09/03/2022,05:10:32,0.000,0.0,0.0,0.0
09/03/2022,05:11:33,-0.001,0.0,0.0,0.0
09/03/2022,05:12:32,0.000,0.0,0.0,0.0
09/03/2022,05:13:41,-0.000,0.0,0.0,0.0
09/03/2022,05:14:32,0.001,0.0,0.0,0.0
09/03/2022,05:15:32,0.000,0.0,0.0,0.0
09/03/2022,05:16:40,0.001,0.0,0.0,0.0
09/03/2022,05:17:32,0.000,0.0,0.0,0.0
09/03/2022,05:18:32,0.001,0.0,0.0,0.0
09/03/2022,05:19:34,0.000,0.0,0.0,0.0
09/03/2022,05:20:32,0.000,0.0,0.0,0.0
09/03/2022,05:21:32,0.000,0.0,0.0,0.0
09/03/2022,05:22:33,-0.001,0.0,0.0,0.0
09/03/2022,05:23:33,0.000,0.0,0.0,0.0
09/03/2022,05:24:32,0.000,0.0,0.0,0.0
09/03/2022,05:25:33,0.000,0.0,0.0,0.0
09/03/2022,05:26:33,0.000,0.0,0.0,0.0
09/03/2022,05:27:32,-0.000,0.0,0.0,0.0
09/03/2022,05:28:32,-0.000,0.0,0.0,0.0
09/03/2022,05:29:33,0.000,0.0,0.0,0.0
09/03/2022,05:30:32,0.000,0.0,0.0,0.0
09/03/2022,05:31:32,0.000,0.0,0.0,0.0
09/03/2022,05:32:33,0.000,0.0,0.0,0.0
09/03/2022,05:33:33,-0.001,0.0,0.0,0.0
09/03/2022,05:34:32,0.001,0.0,0.0,0.0
09/03/2022,05:35:33,-0.000,0.0,0.0,0.0
09/03/2022,05:36:34,0.000,0.0,0.0,0.0
09/03/2022,05:37:33,0.000,0.0,0.0,0.0
09/03/2022,05:38:33,0.000,0.0,0.0,0.0
09/03/2022,05:39:32,0.000,0.0,0.0,0.0
09/03/2022,05:40:32,0.000,0.0,0.0,0.0
09/03/2022,05:41:33,0.000,0.0,0.0,0.0
09/03/2022,05:42:32,0.001,0.0,0.0,0.0
09/03/2022,05:43:33,-0.001,0.0,0.0,0.0
09/03/2022,05:44:35,-0.001,0.0,0.0,0.0
09/03/2022,05:45:32,0.000,0.0,0.0,0.0
09/03/2022,05:46:33,0.000,0.0,0.0,0.0
09/03/2022,05:47:32,0.000,0.0,0.0,0.0
09/03/2022,05:48:32,0.001,0.0,0.0,0.0
09/03/2022,05:49:33,0.001,0.0,0.0,0.0
09/03/2022,05:50:32,0.000,0.0,0.0,0.0
09/03/2022,05:51:41,0.001,0.0,0.0,0.0
09/03/2022,05:52:33,0.000,0.0,0.0,0.0
09/03/2022,05:53:32,0.000,0.0,0.0,0.0
09/03/2022,05:54:41,-0.001,0.0,0.0,0.0
09/03/2022,05:55:32,0.000,0.0,0.0,0.0
09/03/2022,05:56:33,-0.000,0.0,0.0,0.0
09/03/2022,05:57:33,-0.001,0.0,0.0,0.0
09/03/2022,05:58:32,0.000,0.0,0.0,0.0
09/03/2022,05:59:32,0.000,0.0,0.0,0.0
09/03/2022,06:00:33,-0.000,0.0,0.0,0.0
09/03/2022,06:01:33,-0.001,0.0,0.0,0.0
09/03/2022,06:02:41,0.001,0.0,0.0,0.0
09/03/2022,06:03:33,-0.000,0.0,0.0,0.0
09/03/2022,06:04:32,0.000,0.0,0.0,0.0
09/03/2022,06:05:33,0.000,0.0,0.0,0.0
09/03/2022,06:06:33,0.000,0.0,0.0,0.0
09/03/2022,06:07:32,-0.001,0.0,0.0,0.0
09/03/2022,06:08:32,-0.001,0.0,0.0,0.0
09/03/2022,06:09:33,-0.001,0.0,0.0,0.0
09/03/2022,06:10:33,0.000,0.0,0.0,0.0
09/03/2022,06:11:32,0.000,0.0,0.0,0.0
09/03/2022,06:12:41,0.001,0.0,0.0,0.0
09/03/2022,06:13:31,0.000,0.0,0.0,0.0
09/03/2022,06:14:33,0.001,0.0,0.0,0.0
09/03/2022,06:15:33,0.000,0.0,0.0,0.0
09/03/2022,06:16:41,-0.000,0.0,0.0,0.0
09/03/2022,06:17:32,0.000,0.0,0.0,0.0
09/03/2022,06:18:32,-0.000,0.0,0.0,0.0
09/03/2022,06:19:32,-0.000,0.0,0.0,0.0
09/03/2022,06:20:33,0.000,0.0,0.0,0.0
09/03/2022,06:21:32,0.001,0.0,0.0,0.0
09/03/2022,06:22:32,-0.000,0.0,0.0,0.0
09/03/2022,06:23:32,0.001,0.0,0.0,0.0
09/03/2022,06:24:33,0.001,0.0,0.0,0.0
09/03/2022,06:25:33,0.001,0.0,0.0,0.0
09/03/2022,06:26:32,0.001,0.0,0.0,0.0
09/03/2022,06:27:33,0.001,0.0,0.0,0.0
09/03/2022,06:28:33,0.001,0.0,0.0,0.0
09/03/2022,06:29:32,0.001,0.0,0.0,0.0
09/03/2022,06:30:32,0.001,0.0,0.0,0.0
09/03/2022,06:31:32,0.001,0.0,0.0,0.0
09/03/2022,06:32:33,0.001,0.0,0.0,0.0
09/03/2022,06:33:33,0.001,0.0,0.0,0.0
09/03/2022,06:34:32,0.003,0.0,0.0,0.0
09/03/2022,06:35:33,0.002,0.0,0.0,0.0
09/03/2022,06:36:33,0.002,0.0,0.0,0.0
09/03/2022,06:37:33,0.002,0.0,0.0,0.0
09/03/2022,06:38:32,0.003,0.0,0.0,0.0
09/03/2022,06:39:33,0.004,0.0,0.0,0.0
09/03/2022,06:40:41,0.004,0.0,0.0,0.0
09/03/2022,06:41:32,0.004,0.0,0.0,0.0
09/03/2022,06:42:33,0.002,0.0,0.0,0.0
09/03/2022,06:43:33,0.003,0.0,0.0,0.0
09/03/2022,06:44:33,0.004,0.0,0.0,0.0
09/03/2022,06:45:32,0.004,0.0,0.0,0.0
09/03/2022,06:46:32,0.004,0.0,0.0,0.0
09/03/2022,06:47:33,0.004,0.0,0.0,0.0
09/03/2022,06:48:33,0.004,0.0,0.0,0.0
09/03/2022,06:49:33,0.005,0.0,0.0,0.0
09/03/2022,06:50:32,0.005,0.0,0.0,0.0
09/03/2022,06:51:33,0.005,0.0,0.0,0.0
09/03/2022,06:52:33,0.006,0.0,0.0,0.0
09/03/2022,06:53:33,0.005,0.0,0.0,0.0
09/03/2022,06:54:41,0.006,0.0,0.0,0.0
09/03/2022,06:55:49,0.007,0.0,0.0,0.0
09/03/2022,06:57:34,0.008,0.0,0.0,0.0
09/03/2022,06:58:32,0.008,0.0,0.0,0.0
09/03/2022,06:59:35,0.007,0.0,0.001,0.001
09/03/2022,07:00:41,0.008,0.0,0.001,0.0
09/03/2022,07:01:32,0.008,0.0,0.001,0.0
09/03/2022,07:02:33,0.009,0.0,0.001,0.0
09/03/2022,07:03:33,0.009,0.0,0.001,0.0
09/03/2022,07:04:33,0.009,0.0,0.001,0.0
09/03/2022,07:05:32,0.010,0.0,0.001,0.0
09/03/2022,07:06:35,0.010,0.0,0.002,0.001
09/03/2022,07:07:33,0.011,0.0,0.002,0.0
09/03/2022,07:08:40,0.012,0.0,0.002,0.0
09/03/2022,07:09:32,0.012,0.0,0.002,0.0
09/03/2022,07:10:33,0.012,0.0,0.002,0.0
09/03/2022,07:11:33,0.012,0.0,0.003,0.001
09/03/2022,07:12:32,0.012,0.0,0.003,0.0
09/03/2022,07:13:33,0.012,0.0,0.003,0.0
09/03/2022,07:14:33,0.013,0.0,0.003,0.0
09/03/2022,07:15:33,0.012,0.0,0.003,0.0
09/03/2022,07:16:32,0.012,0.0,0.004,0.001
09/03/2022,07:17:33,0.013,0.0,0.004,0.0
09/03/2022,07:18:41,0.012,0.0,0.004,0.0
09/03/2022,07:19:33,0.012,0.0,0.004,0.0
09/03/2022,07:20:33,0.013,0.0,0.004,0.0
09/03/2022,07:21:33,0.013,0.0,0.005,0.001
09/03/2022,07:22:49,0.012,0.0,0.005,0.0
09/03/2022,07:24:33,0.014,0.0,0.005,0.0
09/03/2022,07:25:33,0.013,0.0,0.006,0.001
09/03/2022,07:26:41,0.012,0.0,0.006,0.0
09/03/2022,07:27:33,0.011,0.0,0.006,0.0
09/03/2022,07:28:33,0.013,0.0,0.006,0.0
09/03/2022,07:29:42,0.013,0.0,0.006,0.0
09/03/2022,07:30:31,0.013,0.0,0.007,0.001
09/03/2022,07:31:32,0.010,0.0,0.007,0.0
09/03/2022,07:32:33,0.013,0.0,0.007,0.0
09/03/2022,07:33:33,0.017,0.0,0.007,0.0
09/03/2022,07:34:33,0.017,0.0,0.008,0.001
09/03/2022,07:35:33,0.017,0.0,0.008,0.0
09/03/2022,07:36:32,0.016,0.0,0.008,0.0
09/03/2022,07:37:33,0.022,0.0,0.008,0.0
09/03/2022,07:38:33,0.020,0.0,0.009,0.001
09/03/2022,07:39:33,0.019,0.0,0.009,0.0
09/03/2022,07:40:33,0.019,0.0,0.009,0.0
09/03/2022,07:41:33,0.019,0.0,0.01,0.001
09/03/2022,07:42:33,0.020,0.0,0.01,0.0
09/03/2022,07:43:33,0.019,0.0,0.01,0.0
09/03/2022,07:44:33,0.022,0.0,0.011,0.001
09/03/2022,07:45:33,0.027,0.0,0.011,0.0
09/03/2022,07:46:33,0.030,0.0,0.012,0.001
09/03/2022,07:47:41,0.028,0.0,0.012,0.0
09/03/2022,07:48:33,0.020,0.0,0.012,0.0
09/03/2022,07:49:32,0.017,0.0,0.013,0.001
09/03/2022,07:50:32,0.018,0.0,0.013,0.0
09/03/2022,07:51:32,0.020,0.0,0.013,0.0
09/03/2022,07:52:33,0.022,0.0,0.014,0.001
09/03/2022,07:53:32,0.020,0.0,0.014,0.0
09/03/2022,07:54:32,0.023,0.0,0.014,0.0
09/03/2022,07:55:33,0.022,0.0,0.015,0.001
09/03/2022,07:56:33,0.026,0.0,0.015,0.0
09/03/2022,07:57:41,0.030,0.0,0.016,0.001
09/03/2022,07:58:33,0.029,0.0,0.016,0.0
09/03/2022,07:59:32,0.027,0.0,0.017,0.001
09/03/2022,08:00:33,0.028,0.0,0.017,0.0
09/03/2022,08:01:33,0.029,0.0,0.018,0.001
09/03/2022,08:02:32,0.032,0.0,0.018,0.0
09/03/2022,08:03:32,0.032,0.0,0.019,0.001
09/03/2022,08:04:34,0.034,0.0,0.019,0.0
09/03/2022,08:05:33,0.037,0.0,0.02,0.001
09/03/2022,08:06:33,0.039,0.0,0.02,0.0
09/03/2022,08:07:33,0.041,0.0,0.021,0.001
09/03/2022,08:08:41,0.051,0.0,0.022,0.001
09/03/2022,08:09:33,0.047,0.0,0.023,0.001
09/03/2022,08:10:32,0.038,0.0,0.023,0.0
09/03/2022,08:11:40,0.036,0.0,0.024,0.001
09/03/2022,08:12:33,0.043,0.0,0.025,0.001
09/03/2022,08:13:33,0.051,0.0,0.025,0.0
09/03/2022,08:14:33,0.047,0.0,0.026,0.001
09/03/2022,08:15:33,0.055,0.0,0.027,0.001
09/03/2022,08:16:33,0.064,0.0,0.028,0.001
09/03/2022,08:17:33,0.068,0.0,0.029,0.001
09/03/2022,08:18:32,0.071,0.0,0.03,0.001
09/03/2022,08:19:32,0.072,0.0,0.032,0.002
09/03/2022,08:20:33,0.075,0.0,0.033,0.001
09/03/2022,08:21:41,0.078,0.0,0.034,0.001
09/03/2022,08:22:32,0.080,0.0,0.035,0.001
09/03/2022,08:23:33,0.079,0.0,0.037,0.002
09/03/2022,08:24:33,0.082,0.0,0.038,0.001
09/03/2022,08:25:33,0.081,0.0,0.039,0.001
09/03/2022,08:26:33,0.086,0.0,0.041,0.002
09/03/2022,08:27:33,0.092,0.0,0.042,0.001
09/03/2022,08:28:33,0.096,0.0,0.044,0.002
09/03/2022,08:29:41,0.106,0.0,0.046,0.002
09/03/2022,08:30:31,0.107,0.0,0.047,0.001
09/03/2022,08:31:33,0.112,0.0,0.049,0.002
09/03/2022,08:32:33,0.115,0.0,0.051,0.002
09/03/2022,08:33:33,0.113,0.0,0.053,0.002
09/03/2022,08:34:33,0.118,0.0,0.055,0.002
09/03/2022,08:35:33,0.121,0.0,0.057,0.002
09/03/2022,08:36:33,0.123,0.0,0.059,0.002
09/03/2022,08:37:33,0.124,0.0,0.061,0.002
09/03/2022,08:38:33,0.124,0.0,0.063,0.002
09/03/2022,08:39:32,0.130,0.0,0.065,0.002
09/03/2022,08:40:33,0.132,0.0,0.067,0.002
09/03/2022,08:41:32,0.134,0.0,0.069,0.002
09/03/2022,08:42:32,0.136,0.0,0.072,0.003
09/03/2022,08:43:33,0.138,0.0,0.074,0.002
09/03/2022,08:44:41,0.140,0.0,0.077,0.003
09/03/2022,08:45:33,0.144,0.0,0.079,0.002
09/03/2022,08:46:33,0.144,0.0,0.081,0.002
09/03/2022,08:47:32,0.140,0.0,0.083,0.002
09/03/2022,08:48:33,0.140,0.0,0.086,0.003
09/03/2022,08:49:32,0.135,0.0,0.088,0.002
09/03/2022,08:50:33,0.121,0.0,0.09,0.002
09/03/2022,08:51:33,0.116,0.0,0.092,0.002
09/03/2022,08:52:33,0.114,0.0,0.094,0.002
09/03/2022,08:53:33,0.127,0.0,0.096,0.002
09/03/2022,08:54:33,0.133,0.0,0.098,0.002
09/03/2022,08:55:33,0.123,0.0,0.1,0.002
09/03/2022,08:56:32,0.136,0.0,0.103,0.003
09/03/2022,08:57:34,0.146,0.0,0.105,0.002
09/03/2022,08:58:33,0.138,0.0,0.107,0.002
09/03/2022,08:59:33,0.119,0.0,0.109,0.002
09/03/2022,09:00:41,0.135,0.0,0.112,0.003
09/03/2022,09:01:33,0.128,0.0,0.114,0.002
09/03/2022,09:02:33,0.143,0.0,0.116,0.002
09/03/2022,09:03:33,0.137,0.0,0.118,0.002
09/03/2022,09:04:33,0.149,0.0,0.12,0.002
09/03/2022,09:05:33,0.151,0.0,0.123,0.003
09/03/2022,09:06:32,0.151,0.0,0.126,0.003
09/03/2022,09:07:32,0.145,0.0,0.128,0.002
09/03/2022,09:08:33,0.145,0.0,0.131,0.003
09/03/2022,09:09:33,0.136,0.0,0.133,0.002
09/03/2022,09:10:33,0.123,0.0,0.135,0.002
09/03/2022,09:11:33,0.123,0.0,0.137,0.002
09/03/2022,09:12:33,0.128,0.0,0.139,0.002
09/03/2022,09:13:33,0.137,0.0,0.141,0.002
09/03/2022,09:14:32,0.136,0.0,0.144,0.003
09/03/2022,09:15:33,0.119,0.0,0.146,0.002
09/03/2022,09:16:33,0.122,0.0,0.148,0.002
09/03/2022,09:17:33,0.131,0.0,0.15,0.002
09/03/2022,09:18:33,0.127,0.0,0.152,0.002
09/03/2022,09:19:33,0.133,0.0,0.154,0.002
09/03/2022,09:20:33,0.143,0.0,0.157,0.003
09/03/2022,09:21:42,0.146,0.0,0.159,0.002
09/03/2022,09:22:31,0.159,0.0,0.161,0.002
09/03/2022,09:23:33,0.175,0.0,0.164,0.003
09/03/2022,09:24:41,0.180,0.0,0.168,0.004
09/03/2022,09:25:33,0.183,0.0,0.17,0.002
09/03/2022,09:26:33,0.183,0.0,0.173,0.003
09/03/2022,09:27:41,0.150,0.0,0.176,0.003
09/03/2022,09:28:43,0.151,0.0,0.179,0.003
09/03/2022,09:29:33,0.168,0.0,0.181,0.002
09/03/2022,09:30:33,0.165,0.0,0.184,0.003
09/03/2022,09:31:33,0.189,0.0,0.187,0.003
09/03/2022,09:32:33,0.178,0.0,0.19,0.003
09/03/2022,09:33:33,0.172,0.0,0.193,0.003
09/03/2022,09:34:33,0.169,0.0,0.196,0.003
09/03/2022,09:35:33,0.178,0.0,0.199,0.003
09/03/2022,09:36:33,0.230,1.0,0.202,0.003
09/03/2022,09:37:33,0.227,1.0,0.206,0.004
09/03/2022,09:38:42,0.257,1.0,0.211,0.005
09/03/2022,09:39:33,0.257,1.0,0.214,0.003
09/03/2022,09:40:33,0.275,1.0,0.219,0.005
09/03/2022,09:41:33,0.266,1.0,0.223,0.004
09/03/2022,09:42:33,0.285,1.0,0.228,0.005
09/03/2022,09:43:33,0.309,1.0,0.232,0.004
09/03/2022,09:44:34,0.310,1.0,0.238,0.006
09/03/2022,09:45:33,0.313,1.0,0.243,0.005
09/03/2022,09:46:33,0.317,1.0,0.248,0.005
09/03/2022,09:47:35,0.321,1.0,0.254,0.006
09/03/2022,09:48:41,0.326,1.0,0.259,0.005
09/03/2022,09:49:33,0.329,1.0,0.264,0.005
09/03/2022,09:50:33,0.334,1.0,0.27,0.006
09/03/2022,09:51:33,0.337,1.0,0.275,0.005
09/03/2022,09:52:33,0.340,1.0,0.281,0.006
09/03/2022,09:53:33,0.337,1.0,0.286,0.005
09/03/2022,09:54:33,0.345,1.0,0.292,0.006
09/03/2022,09:55:33,0.353,1.0,0.298,0.006
09/03/2022,09:56:34,0.354,1.0,0.304,0.006
09/03/2022,09:57:33,0.359,1.0,0.31,0.006
09/03/2022,09:58:33,0.362,1.0,0.316,0.006
09/03/2022,09:59:33,0.365,1.0,0.322,0.006
09/03/2022,10:00:33,0.368,1.0,0.328,0.006
09/03/2022,10:01:33,0.368,1.0,0.334,0.006
09/03/2022,10:02:41,0.372,1.0,0.341,0.007
09/03/2022,10:03:32,0.381,1.0,0.346,0.005
09/03/2022,10:04:33,0.381,1.0,0.353,0.007
09/03/2022,10:05:33,0.365,1.0,0.358,0.005
09/03/2022,10:06:33,0.387,1.0,0.364,0.006
09/03/2022,10:07:33,0.392,1.0,0.371,0.007
09/03/2022,10:08:33,0.388,1.0,0.377,0.006
09/03/2022,10:09:33,0.390,1.0,0.383,0.006
09/03/2022,10:10:33,0.339,1.0,0.39,0.007
09/03/2022,10:11:33,0.404,1.0,0.397,0.007
09/03/2022,10:12:41,0.409,1.0,0.404,0.007
09/03/2022,10:13:33,0.341,1.0,0.41,0.006
09/03/2022,10:14:33,0.373,1.0,0.416,0.006
09/03/2022,10:15:33,0.355,1.0,0.422,0.006
09/03/2022,10:16:33,0.274,1.0,0.427,0.005
09/03/2022,10:17:33,0.327,1.0,0.432,0.005
09/03/2022,10:18:33,0.279,1.0,0.437,0.005